Index of /music0/Various Artists/VA - I'm Into Folk Vol/VA - I'm Into Folk Vol. 05

[ICO]NameLast modifiedSizeDescription

[PARENTDIR]Parent Directory  -  
[DIR]yEncBin_Temp0001/2024-07-10 00:24 -  
[SND]401 - Black Tartan Clan - Scotland in Our Hearts.mp32024-06-19 09:51 7.4M 
[SND]402 - Blaggards - Suspicious Minds.mp32024-06-19 09:51 7.6M 
[SND]403 - Hothouse Flowers - The Older We Get.mp32024-06-19 09:51 12M 
[SND]404 - Clan the - Vesuvius.mp32024-06-19 09:51 8.4M 
[SND]405 - Irish Rovers the - Wasn’t That a Party.mp32024-06-19 09:51 9.4M 
[SND]406 - Bastard Bearded Irishmen - Whisky O'.mp32024-06-19 09:51 8.4M 
[SND]407 - Chieftains the - Lily Love.mp32024-06-19 09:51 7.7M 
[SND]408 - Dubliners the - Lord of the Dance.mp32024-06-19 09:51 6.3M 
[SND]409 - Rumpled the - Stand Up.mp32024-06-19 09:51 8.7M 
[SND]410 - Nevermind Nessie - Tarantella.mp32024-06-19 09:51 8.3M 
[SND]411 - Irish Rovers the - Drunken Sailor.mp32024-06-19 09:51 7.7M 
[SND]412 - Firkin - Awaken the Iron.mp32024-06-19 09:51 9.7M 
[SND]413 - Blind Guardian - Nightfall - Remastered 2007.mp32024-06-19 09:51 14M 
[SND]414 - Corrs the - Little Wing - MTV Unplugged Version.mp32024-06-19 09:51 11M 
[SND]415 - Young Dubliners - The Leaving Of Liverpool.mp32024-06-19 09:51 8.9M 
[SND]416 - Chieftains the - Hard Times Come Again No More.mp32024-06-19 09:51 13M 
[SND]417 - Rumpled the - The Gipsy Dancer.mp32024-06-19 09:51 7.1M 
[SND]418 - Porters the - Some Shine Brighter.mp32024-06-19 09:51 14M 
[SND]419 - Pogues the - Sally MacLennane.mp32024-06-19 09:51 7.2M 
[SND]420 - O'Reillys and the Paddyhats the - Black Sails.mp32024-06-19 09:51 8.1M 
[SND]421 - Kilkenny Knights - A Drinker's Song.mp32024-06-19 09:51 7.6M 
[SND]422 - Brick Top Blaggers - American Dream.mp32024-06-19 09:51 8.8M 
[SND]423 - David Kincaid - Boys That Wore the Green.mp32024-06-19 09:51 10M 
[SND]424 - Dreadnoughts the - Brisbane Harbour.mp32024-06-19 09:51 6.4M 
[SND]425 - Flatfoot 56 - Brotherhood.mp32024-06-19 09:51 6.2M 
[SND]426 - Levellers - Carry Me.mp32024-06-19 09:51 12M 
[SND]427 - Bloody Irish Boys the - Catch Me if I Fall.mp32024-06-19 09:51 7.1M 
[SND]428 - Fenians the - Come Out Ye Black and Tans.mp32024-06-19 09:51 8.5M 
[SND]429 - Happy Ol'McWeasel - Drunken Sailor.mp32024-06-19 09:51 9.6M 
[SND]430 - Kilmaine Saints - Haul Away Joe.mp32024-06-19 09:51 4.6M 
[SND]431 - Mr. Irish Bastard - I Hope They Sell Beer in Hell.mp32024-06-19 09:51 8.5M 
[SND]432 - Dropkick Murphys - I Know How It Feels.mp32024-06-19 09:51 7.1M 
[SND]433 - Fish - Internal Exile.mp32024-06-19 09:51 12M 
[SND]434 - Gaelic Storm - Johnny Tarr.mp32024-06-19 09:51 8.8M 
[SND]435 - Korpiklaani - Krystallomantia.mp32024-06-19 09:51 12M 
[SND]436 - Fiddler's Green - My Fairy Of The West.mp32024-06-19 09:51 8.1M 
[SND]437 - Drunken Dolly - Never Too Late Too Party.mp32024-06-19 09:51 10M 
[SND]438 - Kreellers the - New South Wales.mp32024-06-19 09:51 7.4M 
[SND]439 - Hayseed Dixie - Norfolk Girl.mp32024-06-19 09:51 9.4M 
[SND]440 - Five Leaf Clover - Raggle Taggle Gipsy.mp32024-06-19 09:51 6.6M 
[SND]441 - Greenland Whalefishers - Ramones.mp32024-06-19 09:51 5.8M 
[SND]442 - Flogging Molly - Saints & Sinners.mp32024-06-19 09:51 8.3M 
[SND]443 - Alestorm - Sea Shanty 2.mp32024-06-19 09:51 5.0M 
[SND]444 - Dubliners the - Spancil Hill.mp32024-06-19 09:51 10M 
[SND]445 - Crazy Rogues the - Stranger's Tale - 2021 Remastered Version.mp32024-06-19 09:51 7.6M 
[SND]446 - Hair of the Dog - The Moonshiner.mp32024-06-19 09:51 7.5M 
[SND]447 - High Kings the - The Rising Of The Moon.mp32024-06-19 09:51 11M 
[SND]448 - Jolly Jackers - Welcome to the Grind.mp32024-06-19 09:51 7.4M 
[SND]449 - Feelgood McLouds the - We Salute.mp32024-06-19 09:51 9.0M 
[SND]450 - Firkin - Whiskey in the Jar.mp32024-06-19 09:51 6.8M 
[SND]451 - Kings and Boozers - Wild Rover.mp32024-06-19 09:51 9.1M 
[SND]452 - Levellers - Four Boys Lost.mp32024-06-19 09:51 9.4M 
[SND]453 - Killigans the - Cold Outside.mp32024-06-19 09:51 5.2M 
[SND]454 - Jolly Jackers - Hey Johnny.mp32024-06-19 09:51 7.3M 
[SND]455 - Dubliners the - The Rare Auld Mountain Dew.mp32024-06-19 09:51 5.9M 
[SND]456 - High Kings the - Go With The Flow.mp32024-06-19 09:51 7.4M 
[SND]457 - Flogging Molly - Seven Deadly Sins.mp32024-06-19 09:51 7.2M 
[SND]458 - Fiddler's Green - I Need A Volunteer.mp32024-06-19 09:51 6.7M 
[SND]459 - Feelgood McLouds the - No One.mp32024-06-19 09:51 9.3M 
[SND]460 - Dropkick Murphys - Johnny, I Hardly Knew Ya.mp32024-06-19 09:51 9.2M 
[SND]461 - Distillery Rats the - We Are Rats.mp32024-06-19 09:51 8.6M 
[SND]462 - David Kincaid and The Brandos - Paddy on the Turnpike Exit 57 (live).mp32024-06-19 09:51 12M 
[SND]463 - Alison Krauss - Molly Bán (Bawn).mp32024-06-19 09:51 11M 
[SND]464 - Alestorm - Mexico.mp32024-06-19 09:51 8.2M 
[SND]465 - Blind Guardian - The Bard's Song - In the Forest - Remastered 2007.mp32024-06-19 09:51 8.3M 
[SND]466 - Bellowhead - Gosport Nancy.mp32024-06-19 09:51 8.0M 
[SND]467 - Barleyjuice - Whiskey-Bailey's-Guinness.mp32024-06-19 09:51 9.5M 
[SND]468 - American Wake the - The Drinking Jolly Roger.mp32024-06-19 09:51 8.1M 
[SND]469 - Young Dubliners - Bodhran.mp32024-06-19 09:51 5.8M 
[SND]470 - Whisky Priests the - The Durham Light Infantry.mp32024-06-19 09:51 12M 
[SND]471 - Wages of Sin the - Bible and a Gun.mp32024-06-19 09:51 11M 
[SND]472 - Uncle Bard and The Dirty Bastards - Back on Your Feet.mp32024-06-19 09:51 8.6M 
[SND]473 - Tosspints the - Pirates Life.mp32024-06-19 09:51 12M 
[SND]474 - Svartsot - Den Hoboeken Dans.mp32024-06-19 09:51 5.7M 
[SND]475 - Stamp'n Go Shanty - Rising Mandoline.mp32024-06-19 09:51 4.8M 
[SND]476 - Smokey Bastard - Mamma Mia.mp32024-06-19 09:51 8.2M 
[SND]477 - Slainte - Streams of Whiskey.mp32024-06-19 09:51 8.2M 
[SND]478 - Sir Reg - Drink Up Ya Sinners.mp32024-06-19 09:51 7.4M 
[SND]479 - Scrum - You Will Never See Me Again.mp32024-06-19 09:51 12M 
[SND]480 - Scarlet Scallywags the - The Girl with the Red Waving Hair.mp32024-06-19 09:51 9.4M 
[SND]481 - Saint Bushmill's Choir - Come Out You Black & Tans.mp32024-06-19 09:51 7.9M 
[SND]482 - Rum Rebellion - Liquor of Life.mp32024-06-19 09:51 11M 
[SND]483 - Rumpled the - Rumpled Time.mp32024-06-19 09:51 7.5M 
[SND]484 - Real McKenzies the - Barrett's Privateers.mp32024-06-19 09:51 11M 
[SND]485 - Pubcrawlers the - Dead Men Tell No Tales (Feat. Ron Peddle).mp32024-06-19 09:51 6.0M 
[SND]486 - Porters the - A Leak in My Heart.mp32024-06-19 09:51 9.6M 
[SND]487 - Pogues the - Fiesta.mp32024-06-19 09:51 10M 
[SND]488 - Paddy Murphy - Monaghan Jig.mp32024-06-19 09:51 6.1M 
[SND]489 - Paddy And The Rats - This is our Life.mp32024-06-19 09:51 8.3M 
[SND]490 - Orthodox Celts - Flowers of the Red Hill.mp32024-06-19 09:51 3.1M 
[SND]491 - O'Reillys and the Paddyhats the - The Ballad Of Big Bad Billy.mp32024-06-19 09:51 6.8M 
[SND]492 - Nevermind Nessie - Lock Him Up.mp32024-06-19 09:51 6.5M 
[SND]493 - Muirsheen Durkin - Danny Boy.mp32024-06-19 09:51 7.8M 
[SND]494 - Mr. Irish Bastard - Stupid Bastards.mp32024-06-19 09:51 9.3M 
[SND]495 - Mighty Regis the - Get Drunk and Go Home.mp32024-06-19 09:51 5.0M 
[SND]496 - Meisce - Sean Reilly.mp32024-06-19 09:51 9.8M 
[SND]497 - McGillicuddys the - We'll be Coming Down the Road.mp32024-06-19 09:51 12M 
[SND]498 - Mark Knopfler - Before Gas And TV.mp32024-06-19 09:51 14M 
[SND]499 - Mahones the - Paint the Town Red.mp32024-06-19 09:51 8.8M 
[SND]500 - Lumineers the - Flowers In Your Hair.mp32024-06-19 09:51 4.4M 
[TXT]VA - I'm Into Folk Vol. 05.html2024-06-19 09:04 28KMp3tag - File Overview
[IMG]VA - I'm Into Folk Vol. 05.jpg2024-06-18 10:37 1.1M 
[   ]album.nfo2026-04-19 09:50 19K 

Apache/2.4.52 (Ubuntu) Server at library-m.defcomtech.com Port 443